Retour au catalogue

FENGYUN 1C DEB

ActifSSO
NORAD 31836·DEBRIS·🇨🇳 China

Lancé May 10, 1999 depuis Taiyuan Satellite Launch Center

Loading…

Prochains Passages (prochaines 24 heures)

TLE

FraisSource: Space-Track

Époque: Sep 14, 2026, 08:22 UTC

1 31836U 99025CJA 26257.34876672  .00002658  00000-0  13926-2 0  9995
2 31836  98.6243 216.5077 0114437  52.3873 308.7621 14.11761972652909

Suivez FENGYUN 1C DEB en temps réel avec AllMySat

Download on the App Store